Location: Smithsonian NASM Public Observatory
(38.8879°N, 77.0185°W)
Time: 07:09:51
(UTC-04:00)

Daily predictions for brighter satellites

Satellite Brightness Start Highest point End
(mag) Time Altitude Azimuth Time Altitude Azimuth Time Altitude Azimuth
Cosmos 1933 4.3 20:51:47 10° NNW 20:55:47 51° W 20:59:45 10° S
ALOS 2.6 20:51:24 10° S 20:56:03 72° WSW 21:00:44 10° NNW
Resurs 01 Rocket 4.0 20:52:51 10° SSW 20:56:24 24° W 20:59:58 10° NW
Cosmos 389 Rocket 3.5 20:54:49 10° NNW 20:58:10 48° W 21:01:32 10° S
ATLAS 5 CENTAUR R/B 3.3 20:53:36 10° NNW 20:59:06 36° NE 21:04:56 10° ESE
Cosmos 921 Rocket 4.5 21:00:24 10° SW 21:04:27 42° WNW 21:08:36 10° N
Cosmos 2278 Rocket 4.0 21:03:02 10° ESE 21:04:31 11° E 21:06:01 10° E
USA 234 4.3 21:01:17 10° ENE 21:05:51 20° ESE 21:10:24 10° SSE
Cosmos 1943 4.0 21:02:14 10° NNW 21:07:42 51° WSW 21:13:05 10° S
PSLV R/B 3.7 21:06:35 10° WNW 21:10:01 62° N 21:13:30 10° E
Meteor 2-3 Rocket 3.7 21:06:31 10° S 21:12:09 87° E 21:17:47 10° N
Abrixas rocket 2.3 21:10:31 10° NW 21:13:57 80° NNE 21:16:54 13° ESE
Okean 1-7 3.4 21:09:48 10° NNW 21:14:03 66° W 21:18:19 10° S
CZ-4 DEB 3.0 21:12:54 10° S 21:16:03 71° W 21:19:13 10° NNW
Cosmos 1844 Rocket 3.3 21:12:47 10° SSE 21:17:48 33° ESE 21:22:48 10° NE
Cosmos 2056 Rocket 3.7 21:13:05 10° S 21:18:03 48° ESE 21:22:59 10° NNE
Cosmos 1371 Rocket 4.0 21:14:40 10° S 21:19:58 71° ESE 21:25:15 10° NNE
Cosmos 1825 4.1 21:19:37 12° ESE 21:20:50 14° E 21:22:46 10° NE
Cosmos 1674 Rocket 4.3 21:17:15 10° N 21:21:23 36° ENE 21:24:53 13° SE
Cosmos 1340 Rocket 3.0 21:18:22 10° SSW 21:22:19 74° W 21:26:21 10° N
Cosmos 1461 3.9 21:20:45 10° SW 21:25:22 59° WNW 21:29:54 10° NNE
Cosmos 1939 Rocket 2.8 21:21:38 10° SSE 21:25:26 64° ENE 21:29:18 10° N
Atlas Centaur 2 2.5 21:25:11 10° SW 21:27:53 20° S 21:29:20 16° SE
Cosmos 1782 3.3 21:26:13 10° N 21:30:02 41° E 21:32:54 16° SE
Cosmos 2263 Rocket 3.8 21:27:16 10° SW 21:32:33 38° WNW 21:37:48 10° N
CENTAUR R/B 3.1 21:28:24 10° NNW 21:36:20 85° ENE 21:43:29 15° SE
Cosmos 2154 Rocket 4.3 21:33:19 10° SSE 21:39:11 45° E 21:45:03 10° NNE
SL-27 R/B 3.1 21:37:15 10° N 21:40:46 41° ENE 21:42:35 23° SE
SL-8 R/B 3.7 21:36:43 10° WSW 21:41:34 89° NNW 21:46:23 10° ENE
YAOGAN 6 3.5 21:40:07 21° ESE 21:41:41 31° ENE 21:44:49 10° N
Cosmos 1408 3.9 21:40:58 21° ESE 21:41:54 23° E 21:44:50 10° NE
NOSS 2-2 (D) 3.5 21:39:20 10° SSW 21:43:24 89° WNW 21:48:05 10° NNE
Coronas F rocket 2.4 21:42:02 10° SSW 21:44:34 43° W 21:47:07 10° N
Cosmos 2184 Rocket 4.1 21:40:13 10° S 21:46:21 78° W 21:52:33 10° N
deb Chang Zheng 4 3.8 21:44:08 10° N 21:48:33 75° WNW 21:52:57 10° SSW
COS B Rocket 3.6 21:44:35 10° NNE 21:48:43 49° E 21:50:53 23° SSE
Cosmos 1975 Rocket 4.4 21:45:31 10° NNE 21:48:55 22° ENE 21:50:14 19° E
Cosmos 1606 3.2 21:48:53 10° N 21:52:41 44° E 21:54:20 28° SE
Okean 3 4.4 21:52:27 10° NNE 21:56:18 31° ENE 21:57:39 26° ESE
Cosmos 1908 Rocket 3.6 21:53:55 18° S 21:57:01 59° E 22:01:22 10° NNE
Cosmos 1624 Rocket 4.4 21:52:21 10° SSW 21:57:33 65° WNW 22:02:51 10° NNE
NOSS 2-2 (C) 4.0 21:54:05 10° SW 21:58:07 62° NW 22:02:47 10° NNE
H-2A R/B 3.6 21:56:03 17° E 21:58:23 23° ENE 22:02:28 10° NNE
Envisat 3.3 21:53:57 12° S 21:58:38 67° WSW 22:03:43 10° NNW
Meteor 2-10 Rocket 4.3 21:53:01 10° NNW 21:58:42 57° W 22:04:16 10° S
Cosmos 1892 4.2 21:55:23 10° SSW 21:58:55 36° WNW 22:02:30 10° N
USA 245 3.5 21:58:30 31° E 21:59:00 34° ENE 22:02:09 10° N
Cosmos 1242 Rocket 4.3 22:00:26 10° NNE 22:03:04 19° ENE 22:03:15 19° ENE
Cosmos 1733 Rocket 4.0 21:58:53 10° SSW 22:03:10 49° W 22:07:27 10° N
Cosmos 1378 Rocket 3.7 22:02:13 10° N 22:06:27 54° E 22:08:06 33° SE
Meteor 2-6 Rocket 4.4 22:01:02 10° NNW 22:07:01 80° W 22:11:36 17° S
MINOTAUR IV R/B 4.4 22:02:40 10° SSW 22:07:08 76° ESE 22:11:36 10° NNE
TIMED 4.5 22:06:09 20° S 22:09:02 61° ESE 22:13:22 10° NNE
CZ-4 SHROUD 3.1 22:08:16 43° S 22:09:10 84° W 22:12:16 10° NNW
Intercosmos 25 4.0 22:12:07 34° E 22:12:15 34° E 22:15:18 10° NNE
SPOT 1/Viking Rocket 3.6 22:10:27 29° SSE 22:13:07 66° ENE 22:18:17 10° N
ERBS 2.3 22:12:29 10° NW 22:15:57 72° SW 22:16:36 53° SSE
Cosmos 407 Rocket 3.5 22:13:58 10° NNW 22:19:15 87° WSW 22:21:52 31° SSE
Cosmos 1452 Rocket 3.4 22:16:33 13° SSW 22:21:18 80° ESE 22:26:36 10° NNE
Cosmos 1238 Rocket 2.2 22:18:36 10° N 22:21:42 71° E 22:21:59 65° SE
Landsat 7 4.4 22:21:42 33° ESE 22:22:58 40° ENE 22:27:25 10° N
SPOT 5 3.6 22:19:21 18° S 22:23:04 55° W 22:28:19 10° NNW
COSMOS 2406 4.0 22:21:59 10° NW 22:27:28 47° WSW 22:30:59 21° S
H-2A R/B 3.8 22:24:05 11° SSW 22:27:35 28° W 22:31:18 10° NW
Cosmos 1190 Rocket 4.5 22:24:44 10° NNW 22:29:48 55° WSW 22:32:30 26° S
Cosmos 2084 3.4 22:32:18 52° E 22:32:18 52° E 22:35:31 10° NE
Cosmos 2218 Rocket 4.3 22:32:39 35° SE 22:34:51 49° E 22:40:58 10° NNE
Cosmos 1862 3.9 22:33:23 24° SSW 22:35:37 55° W 22:39:38 10° N
Cosmos 1140 Rocket 3.8 22:31:23 10° N 22:36:23 49° ENE 22:37:36 41° ESE
Nadezhda 3 Rocket 4.3 22:31:27 10° NNW 22:37:46 68° W 22:41:46 24° S
Terra 2.4 22:37:58 38° E 22:38:43 40° ENE 22:43:10 10° N
ARGOS 3.1 22:38:33 37° S 22:40:47 80° WSW 22:46:11 10° NNW
DMSP B5D2-2 4.3 22:37:40 10° NNE 22:42:40 45° E 22:43:08 44° ESE
DELTA 2 DEB (DPAF) 4.2 22:42:45 56° ESE 22:43:24 64° ENE 22:47:50 10° N
ATLAS 5 CENTAUR R/B 3.2 22:38:11 10° NW 22:43:56 43° WSW 22:46:55 27° SSW
Okean 2 Rocket 3.0 22:42:45 47° SSW 22:43:59 85° W 22:48:26 10° N
PSLV R/B 4.3 22:44:11 10° W 22:46:43 40° WSW 22:46:43 40° WSW
Cosmos 2278 Rocket 2.1 22:43:31 19° SSW 22:47:43 87° WNW 22:53:27 10° NNE
USA 234 3.1 22:42:49 10° NE 22:49:23 86° SE 22:55:55 10° SW
Cosmos 1844 4.4 22:44:35 10° SW 22:50:13 55° WNW 22:55:55 10° NNE
CZ-4B R/B 4.1 22:46:40 10° N 22:51:31 53° WNW 22:54:54 19° SW
Cosmos 2341 Rocket 4.4 22:46:29 15° SSW 22:51:42 60° W 22:57:55 10° N
Cosmos 1727 Rocket 4.3 22:48:15 10° N 22:54:11 47° ENE 22:55:27 41° ESE
CZ-4C R/B 3.2 22:54:26 79° NNE 22:54:26 79° NNE 22:58:14 10° N
Cosmos 1833 Rocket 3.9 22:51:12 10° N 22:56:02 29° ENE 22:57:19 26° E
Cosmos 1825 3.7 22:54:31 23° WSW 22:56:06 33° WNW 22:59:36 10° NNW
Cosmos 1850 Rocket 4.2 22:51:19 10° N 22:56:33 57° ENE 22:57:23 51° ESE
Cosmos 1959 Rocket 4.3 22:58:48 46° S 23:00:47 79° E 23:06:54 10° N
Cosmos 1844 Rocket 4.3 22:56:33 10° WSW 23:01:38 33° WNW 23:06:42 10° N
Timation 2 Rocket 3.8 22:58:02 10° NNW 23:04:01 71° ENE 23:05:20 54° SE
Cosmos 1184 Rocket 4.5 23:04:01 29° W 23:04:19 30° WNW 23:07:19 10° NNW
Cosmos 1812 4.4 23:02:38 10° NNE 23:04:51 24° NE 23:04:51 24° NE
Cosmos 1954 Rocket 4.4 23:02:10 10° NNW 23:07:14 55° WSW 23:08:21 46° SSW
Cosmos 2082 Rocket 2.7 23:03:15 10° N 23:08:44 45° ENE 23:09:37 42° E
COSMOS 2487 3.7 23:10:57 10° NNW 23:13:44 38° WNW 23:13:44 38° WNW
Cosmos 1741 Rocket 3.8 23:09:12 10° NNW 23:14:28 80° ENE 23:14:51 74° SE
IGS 5A 3.6 23:17:59 70° NNW 23:17:59 70° NNW 23:21:44 10° NNW
Cosmos 2297 3.6 23:16:56 61° S 23:17:59 84° ESE 23:23:45 10° NNE
SL-8 Rocket 4.4 23:17:09 32° SSW 23:20:05 61° W 23:26:17 10° N
DNEPR-1 R/B 3.7 23:15:19 10° NNW 23:20:38 77° NE 23:20:38 77° NE
APEX 3.8 23:22:47 60° NNW 23:22:47 60° NNW 23:26:55 10° NNE
Cosmos 1339 Rocket 4.4 23:18:27 10° N 23:24:34 69° E 23:25:21 62° SE
CARTOSAT-1 4.1 23:27:44 54° W 23:27:44 54° W 23:31:41 10° NNW
USA 229 DEB 4.1 23:26:56 10° NNW 23:33:57 58° NE 23:35:48 46° ESE
USA 229 4.1 23:27:02 10° NNW 23:34:03 58° NE 23:35:55 45° ESE
Cosmos 1110 Rocket 4.5 23:36:09 48° ENE 23:36:09 48° ENE 23:40:14 10° NNE
H-2A R/B 2.8 23:36:42 43° WSW 23:37:27 46° W 23:42:37 10° NNW
Meteor 2-19 Rocket 4.4 23:37:43 66° SSW 23:38:41 84° W 23:44:50 10° N
Cosmos 1536 Rocket 4.1 23:35:12 10° NNW 23:39:02 58° NW 23:39:02 58° NW
Iridium 4 Rocket 4.3 23:44:17 10° N 23:49:35 46° ENE 23:49:35 46° ENE
